Regional Weather Roundup
Issued by NWS

Home | Current Version | Previous Version | Graphics & Text | Print | Product List | Glossary On
Versions: 1 2 3 4 5 6 7 8 9 10 11 12 13 14 15 16 17 18 19 20 21 22 23 24 25 26 27 28 29 30 31 32 33 34 35 36 37 38 39 40 41 42 43 44 45 46 47 48 49 50
000
ASUS43 KBIS 211502
RWRND

NORTH DAKOTA REGIONAL WEATHER ROUNDUP
NATIONAL WEATHER SERVICE BISMARCK ND
900 AM CST SUN JAN 21 2018

NOTE: "FAIR" INDICATES FEW OR NO CLOUDS BELOW 12,000 FEET WITH NO
SIGNIFICANT WEATHER AND/OR OBSTRUCTIONS TO VISIBILITY.


NDZ001>003-009>011-017-211600-
NORTHWEST NORTH DAKOTA

CITY           SKY/WX    TMP DP  RH WIND       PRES   REMARKS
WILLISTON      CLEAR      7   4  87 S3        30.01R
MINOT          CLEAR     15  11  83 CALM      30.01R
MINOT AFB      CLEAR      9   6  88 CALM      30.00S
$$

NDZ018>021-031>035-040>046-211600-
SOUTHWEST NORTH DAKOTA

CITY           SKY/WX    TMP DP  RH WIND       PRES   REMARKS
BISMARCK       MOCLDY    13  11  92 CALM      30.04R
DICKINSON      CLEAR     19  14  81 W10       29.97R WCI   7
GARRISON         N/A      6   3  87 N8        30.01R WCI  -7
HETTINGER ARPT CLOUDY    20  15  81 W7        30.00R WCI  11
$$

NDZ004>008-012>016-024-026-027-054-211600-
NORTHEAST NORTH DAKOTA

CITY           SKY/WX    TMP DP  RH WIND       PRES   REMARKS
GRAND FORKS    CLOUDY    22  21  96 N6        30.05R WCI  14
GRND FRKS AFB  CLOUDY    22  21  95 N5        30.04S WCI  16
DEVILS LAKE    FOG        8   6  92 CALM      30.04R VSB 1/2
$$

NDZ022-023-025-028>030-036>039-047>053-211600-
SOUTHEAST NORTH DAKOTA

CITY           SKY/WX    TMP DP  RH WIND       PRES   REMARKS
FARGO          FAIR      20  18  92 N9        30.03R WCI   9
JAMESTOWN      PTCLDY    15  14  95 NW5       30.01R WCI   8
$$





USA.gov is the U.S. government's official web portal to all federal, state and local government web resources and services.